Probability
16 14 13 9 3 1 0 0 0 0 0 0 0 0 0 0 0 0 0 0 0 0 0 0 0 0 0 0 0 0 0 0 0 0 0 0 0 0 0 0 0 0 0
16 15 15 10 4 2 1 0 0 0 0 0 0 0 0 0 0 0 0 0 0 0 0 0 0 0 0 0 0 0 0 0 0 0 0 0 0 0 0 0 0 0 0
16 16 16 12 6 3 2 1 0 0 0 0 0 0 0 0 0 0 0 0 0 0 0 0 0 0 0 0 0 0 0 0 0 0 0 0 0 0 0 0 0 0 0
17 16 15 13 8 4 3 2 1 0 0 0 0 0 0 0 0 0 0 0 0 0 0 0 0 0 0 0 0 0 0 0 0 0 0 0 0 0 0 0 0 0 0
20 18 16 14 10 7 5 3 1 0 0 0 0 0 0 0 0 0 0 0 0 0 0 0 0 0 0 0 0 0 0 0 0 0 0 0 0 0 0 0 0 0 0
21 20 17 15 13 10 7 5 2 0 0 1 1 0 0 0 0 0 0 0 0 0 0 0 0 0 0 0 0 0 0 0 0 0 0 0 0 0 0 0 0 0 0
24 21 18 16 14 9 7 6 3 1 1 1 1 0 0 0 0 0 1 1 1 1 0 0 0 0 0 0 0 0 0 0 0 0 0 0 0 0 0 0 0 0 0
32 25 18 15 12 8 5 5 4 2 2 1 1 0 0 0 0 0 1 2 2 1 0 0 0 0 0 0 0 0 0 0 0 0 0 0 0 0 0 0 0 0 0
37 26 17 13 10 7 5 4 4 3 3 1 0 0 0 0 0 1 1 1 1 1 0 0 0 0 0 0 0 0 0 0 0 0 0 0 1 1 0 0 0 0 0
39 28 18 13 9 5 4 4 4 4 3 2 1 0 0 0 0 1 1 0 0 0 0 0 0 0 0 0 0 0 0 0 0 0 0 1 1 2 1 1 0 0 0
41 33 24 16 9 4 4 5 5 3 2 1 1 1 1 1 1 2 2 1 0 0 0 0 0 0 0 0 0 0 0 0 0 0 1 1 1 2 2 2 1 0 0
38 34 27 20 12 7 7 8 7 4 2 2 2 2 2 2 3 3 3 3 2 1 1 1 0 0 1 1 1 1 1 1 1 1 2 1 1 1 2 3 2 1 0
33 31 29 25 21 18 15 13 11 9 7 6 4 4 4 3 4 5 4 4 3 3 3 3 2 1 2 2 2 2 2 2 3 3 4 3 2 1 1 3 3 1 0
32 32 33 34 33 30 25 19 15 14 12 10 9 6 5 4 4 6 5 5 4 4 5 7 5 3 3 2 2 3 4 4 4 6 6 5 4 2 1 2 3 2 1
32 34 37 40 39 36 31 25 20 17 14 12 9 7 5 5 6 8 8 5 2 2 4 7 7 6 5 4 2 2 4 6 7 8 8 7 6 4 3 3 2 1 0
29 32 36 38 37 34 31 27 22 17 15 14 11 9 7 7 8 9 7 3 1 1 2 3 3 4 4 4 2 2 4 6 9 12 12 9 7 5 5 4 2 1 1
26 28 30 31 30 29 28 25 20 16 16 17 16 13 9 7 7 6 4 2 1 2 2 2 1 1 2 4 5 4 4 6 8 13 15 13 9 7 6 5 4 3 3
25 26 28 27 26 25 24 22 19 17 17 18 17 13 10 7 4 3 3 2 2 3 3 3 2 1 3 6 7 5 4 5 7 12 16 16 15 12 8 6 6 7 7
24 25 26 25 23 20 18 18 18 17 16 15 13 11 9 6 3 1 2 3 4 4 4 4 4 4 6 7 6 4 3 4 5 9 12 15 17 18 14 10 9 10 9
20 20 20 20 18 15 13 14 15 14 12 10 9 9 6 3 1 0 2 4 4 4 5 6 5 6 8 8 4 3 3 4 4 6 8 10 14 18 17 15 16 15 13
14 15 15 14 13 12 11 11 11 9 6 5 5 5 3 1 0 0 1 2 2 3 5 5 4 5 7 7 4 3 4 4 5 6 6 7 9 14 17 18 21 21 18
10 11 11 11 10 9 8 7 7 4 2 2 3 2 1 0 0 0 0 0 1 2 3 3 2 3 4 6 5 3 3 4 5 6 7 7 9 13 16 18 22 22 21
6 6 8 8 7 5 4 3 2 1 1 1 1 1 0 0 0 1 0 0 0 1 1 1 1 1 2 4 4 3 2 2 3 5 6 8 9 10 11 13 16 17 16
3 3 4 5 4 2 1 0 0 0 0 0 0 0 0 0 0 0 0 0 0 0 0 0 1 1 1 2 3 3 2 1 1 2 4 5 6 5 5 6 8 10 10
3 3 2 1 1 0 0 0 0 0 0 0 0 0 0 0 0 0 0 0 0 0 0 0 1 2 1 1 1 1 2 2 1 1 2 3 3 3 2 2 2 5 7
3 2 1 0 0 0 0 0 0 0 0 0 0 0 0 0 0 0 0 0 0 0 0 0 0 1 1 0 0 0 1 2 2 2 2 2 3 3 2 1 1 4 6
Wind_Speed
17 16 16 15 14 14 13 13 13 13 13 13 13 13 14 14 14 14 14 13 13 12 12 12 11 12 12 12 12 12 12 12 13 13 13 13 12 12 12 13 14 13 16
20 17 16 15 14 14 13 13 13 13 13 13 13 13 13 13 13 13 13 12 12 12 12 12 12 12 12 12 12 11 11 11 11 12 14 13 12 11 10 11 14 11 15
19 17 16 14 14 14 13 13 12 12 12 12 12 12 12 11 11 12 12 12 12 12 12 12 12 12 12 11 11 9 9 8 9 10 10 9 10 11 12 15 16 15 15
19 16 15 16 14 14 13 13 12 12 12 12 12 11 11 10 10 11 11 11 11 11 11 11 12 12 11 11 9 8 6 6 5 6 3 7 9 13 14 15 15 14 14
17 16 16 16 15 14 13 13 12 12 12 12 11 11 10 10 10 10 10 10 10 11 11 11 11 11 10 9 7 5 4 2 2 2 6 9 8 11 14 14 14 13 14
17 17 16 16 15 14 13 12 12 12 11 11 11 10 10 10 9 10 9 10 10 10 10 10 10 10 9 7 5 3 1 1 3 3 7 9 8 11 13 13 13 13 12
17 16 16 16 15 14 13 12 12 11 11 11 11 10 10 9 9 9 9 9 9 9 9 9 9 8 8 6 4 1 3 5 4 4 8 9 9 11 12 12 12 12 12
17 16 15 16 15 14 12 12 12 11 11 10 10 10 9 9 9 9 8 8 8 8 8 8 8 7 6 5 2 2 4 7 3 6 10 10 11 12 12 12 11 12 12
16 16 14 13 13 14 13 12 11 11 10 10 9 9 8 8 8 8 8 8 8 7 7 7 6 6 5 3 1 2 5 7 6 3 10 9 12 12 12 12 11 11 11
12 13 13 12 12 11 11 12 12 11 10 10 9 8 8 8 8 8 8 7 7 7 6 6 6 5 4 3 2 4 6 7 3 4 7 10 14 13 12 12 11 10 10
10 9 10 10 9 10 11 11 11 11 10 9 8 8 8 6 7 7 8 9 8 6 6 5 5 5 5 5 6 6 5 3 1 4 6 13 14 14 12 11 11 10 10
10 9 7 8 6 6 7 8 6 7 7 6 5 5 4 3 3 6 10 10 8 7 7 6 6 6 6 4 6 7 4 3 1 4 7 15 14 13 12 11 10 10 10
8 8 7 6 4 5 4 5 3 3 4 4 4 3 2 2 2 4 4 5 5 6 5 5 6 4 4 2 3 4 3 1 2 4 8 14 13 13 12 11 11 10 10
7 8 7 7 4 4 4 3 3 3 3 3 3 1 2 1 1 2 2 2 2 2 2 2 2 1 1 1 1 2 1 1 3 4 7 13 12 12 12 12 11 11 10
6 8 7 7 6 5 4 2 3 3 3 4 3 2 2 2 2 2 2 1 1 1 1 1 0 1 1 2 3 2 3 2 3 4 6 12 12 11 12 12 12 11 11
6 7 7 8 7 5 4 3 2 3 3 3 3 3 2 2 2 2 2 1 1 1 1 0 1 1 0 1 2 2 2 2 1 3 5 8 11 11 12 12 12 12 12
7 7 7 8 7 5 4 3 2 2 3 3 4 4 3 3 2 2 1 1 1 0 1 0 0 0 1 1 1 2 2 1 1 0 4 5 6 10 11 12 12 12 12
8 7 6 7 7 6 4 3 2 2 3 3 3 4 4 3 2 1 1 2 1 0 1 1 1 0 1 1 1 2 1 1 1 1 2 4 4 5 8 11 11 11 12
7 7 7 6 6 5 4 3 4 3 3 3 3 3 3 3 2 2 2 2 1 1 1 1 2 1 0 1 2 2 2 2 2 3 1 2 3 4 4 8 10 11 12
8 7 7 6 5 4 4 3 3 3 3 3 4 3 3 3 3 2 3 2 1 2 2 2 1 0 1 1 3 2 2 3 2 3 3 2 3 4 5 6 5 6 11
8 7 6 6 4 3 3 3 3 3 3 4 4 4 4 3 3 2 3 2 1 3 2 2 2 1 1 1 1 1 2 3 3 3 3 2 3 4 4 5 5 4 5
9 7 7 6 5 4 4 3 2 3 3 4 4 3 4 3 2 2 3 2 2 2 2 2 2 1 1 1 1 1 1 1 1 3 2 3 3 2 3 4 5 5 4
9 8 7 7 5 4 4 3 4 3 2 4 4 3 3 3 3 4 3 3 3 2 2 2 3 3 2 1 1 1 1 1 1 0 1 2 2 1 2 2 4 4 5
10 9 8 7 6 4 3 3 3 4 4 4 4 4 3 3 3 4 3 3 3 3 3 2 4 3 2 2 1 1 1 1 1 1 1 2 3 2 2 2 2 3 4
11 11 9 8 6 5 4 4 2 3 4 4 5 5 4 3 3 4 3 3 3 3 3 4 3 3 3 3 2 2 1 0 1 1 1 0 1 1 2 2 2 2 3
11 11 10 8 6 5 5 5 3 4 4 5 4 4 3 3 3 3 4 3 2 2 3 3 3 3 3 3 3 3 2 2 1 1 1 1 1 1 1 1 2 2 2
Wind_Direction
116 121 123 125 127 125 123 121 120 116 111 107 103 100 96 93 91 90 90 89 90 88 86 86 85 84 84 84 85 86 89 92 94 96 96 95 96 101 107 112 109 103 106
117 122 123 125 127 126 123 121 121 120 117 113 110 105 101 98 95 93 92 91 90 89 87 87 87 85 86 86 88 91 96 101 107 110 109 99 94 95 103 106 102 109 111
118 124 125 124 127 127 124 123 123 122 119 117 113 110 106 102 100 97 95 93 91 90 87 87 88 88 88 88 89 93 102 110 120 131 133 112 99 92 98 101 105 109 109
122 129 126 126 126 127 125 124 125 125 123 120 117 114 110 106 104 101 98 95 93 91 89 88 89 90 90 90 91 95 105 118 138 158 143 109 103 98 101 104 107 110 111
123 122 124 130 128 128 127 126 126 126 124 123 121 119 115 111 108 105 103 100 96 94 92 90 89 90 92 93 94 98 102 114 176 161 91 90 93 105 107 109 111 113 112
122 121 128 130 130 130 130 129 127 127 126 124 123 120 117 113 109 106 103 102 98 96 95 94 93 92 94 96 96 90 63 308 274 134 114 108 106 110 112 113 114 114 114
118 123 129 131 130 131 131 131 129 130 129 128 126 123 120 116 113 110 108 105 102 100 99 98 98 98 96 95 92 40 327 314 281 115 106 106 113 117 115 115 115 116 116
118 121 128 131 132 131 132 132 131 132 133 133 130 128 127 123 120 118 116 112 108 106 106 105 105 104 102 99 85 342 323 315 327 115 113 114 125 122 120 118 118 119 120
118 127 135 137 136 136 135 135 135 135 134 135 135 135 134 132 134 131 127 124 120 117 115 116 117 115 114 115 118 304 307 310 307 132 120 122 129 128 127 125 124 124 124
118 126 135 141 144 146 142 142 143 142 142 141 143 147 148 148 150 147 146 138 135 133 130 131 134 138 146 165 215 265 293 302 291 102 113 132 137 135 135 133 132 132 129
112 117 131 132 146 150 149 148 151 151 152 153 158 164 169 177 164 165 145 147 150 152 153 154 161 170 183 201 222 247 275 270 21 92 109 139 142 141 141 142 141 139 136
119 119 116 125 131 140 142 144 153 160 155 168 159 170 189 177 152 141 141 154 160 168 174 181 189 202 216 207 211 226 249 237 138 117 132 145 145 146 148 150 150 148 145
122 116 111 110 115 117 121 137 135 135 145 150 138 154 145 133 138 128 145 154 170 184 194 180 199 220 218 204 195 215 226 186 105 114 145 149 149 154 156 158 159 158 156
120 112 111 110 101 83 91 115 132 131 128 112 114 98 91 88 69 100 118 141 172 177 166 181 223 235 298 316 265 266 306 130 118 119 153 155 157 162 165 166 168 169 167
120 113 110 105 92 85 74 74 95 93 104 108 107 84 80 94 72 68 60 62 43 111 149 179 145 31 7 340 316 330 334 355 113 139 148 160 165 174 174 173 176 178 178
127 118 115 110 101 95 90 77 80 107 108 105 100 99 78 80 88 91 89 60 47 65 71 103 141 148 273 304 315 332 319 339 117 143 148 163 172 181 183 182 184 186 187
126 122 124 121 110 102 97 98 98 93 101 97 98 97 82 76 84 91 115 110 53 78 127 148 84 97 238 243 253 268 281 317 320 140 152 156 175 187 189 189 191 193 194
125 123 122 119 113 110 102 89 87 82 88 90 95 91 83 70 68 83 88 73 8 352 109 146 162 194 277 286 276 266 272 273 272 267 176 166 170 180 190 194 197 198 200
126 121 110 107 115 119 121 113 103 95 85 91 89 89 95 91 74 76 83 69 0 34 45 14 81 65 321 284 265 241 238 235 241 254 238 184 173 175 176 191 200 204 205
124 117 116 117 118 130 126 126 126 120 118 106 101 94 88 87 67 50 98 76 22 50 57 48 59 136 234 247 274 260 221 216 214 223 226 206 187 193 190 184 185 208 211
128 123 121 120 126 132 129 138 138 134 127 114 113 106 96 81 73 48 61 87 59 68 56 43 36 323 253 217 270 267 233 210 208 207 207 213 206 201 193 179 173 192 205
141 140 136 132 131 120 110 107 114 118 116 105 94 94 88 78 53 80 62 47 52 72 67 43 39 357 347 57 327 303 247 190 242 213 194 205 206 202 200 199 185 191 197
148 148 133 124 120 116 134 132 120 119 122 118 121 108 95 90 75 52 54 45 29 47 65 38 32 24 6 358 37 17 8 28 310 191 196 164 161 191 209 190 193 195 201
149 141 130 126 120 123 133 115 145 135 125 119 118 111 104 90 93 85 70 58 35 44 46 31 56 9 3 348 28 62 90 71 341 343 252 168 177 184 201 219 196 184 181
149 143 137 130 127 126 123 120 120 113 123 119 111 120 124 116 107 100 93 70 48 58 58 42 42 25 11 10 357 349 358 277 238 250 298 326 228 192 182 186 195 184 179
152 145 142 141 141 142 132 120 107 102 102 112 120 137 155 139 123 106 102 79 59 60 62 48 30 35 36 21 360 346 348 351 353 359 334 320 305 280 169 166 180 191 187